Location: Le Petit-Vavre
(46.5081°N, 1.5239°E)
Time: 15:55:12
(UTC+00:00)

GP-B - Pass Details

Date: 03 March 2021
Orbit: 631 x 635 km, 89.8° (Epoch: 17 April)

Event Time Altitude Azimuth Distance (km) Brightness Sun altitude
Rises 19:21:29 0° 182° (S) 2,916 6.4 -17.7°
Reaches altitude 10° 19:23:42 10° 184° (S) 2,014 5.6 -18.1°
Maximum altitude 19:28:07 72° 269° (W) 672 3.3 -18.8°
Drops below altitude 10° 19:32:35 10° 355° (N) 2,032 5.9 -19.6°
Sets 19:34:50 0° 357° (N) 2,945 6.7 -20.0°
